Simultaneous Nadir Overpasses (SNOs) Predictions

Prediction of SNOs between AQUA and NPP Satellite Orbit:

Table of predicted SNOs for the next 14.0 days since TLE Epoch: 4/24/2021
Index Date (AQUA) Time (AQUA) Lat,Lon (AQUA) SZA (AQUA ) Date (NPP) Time (NPP) Lat,Lon (NPP) SZA (NPP ) Distance(km) Time Diff (sec)
1 04/25/2021 14:05:22 75.04,-155.02 85.10 04/25/2021 14:04:14 75.04,-155.03 85.17 0.12 68
2 04/25/2021 14:54:27 -76.16, 15.85 96.19 04/25/2021 14:54:36 -76.15, 15.82 96.19 0.77 9
3 04/28/2021 06:21:43 75.40, -38.14 83.84 04/28/2021 06:21:00 75.40, -38.16 83.88 0.38 43
4 04/28/2021 07:10:50 -76.42, 132.58 97.35 04/28/2021 07:11:24 -76.41, 132.54 97.37 1.04 34
5 04/30/2021 22:38:03 75.81, 78.91 82.55 04/30/2021 22:37:45 75.81, 78.91 82.56 0.05 18
6 04/30/2021 23:27:12 -76.72,-110.52 98.53 04/30/2021 23:28:11 -76.72,-110.54 98.57 0.66 59
7 05/03/2021 14:05:22 -74.96, 24.79 97.28 05/03/2021 14:04:12 -74.96, 24.78 97.22 0.22 70
8 05/03/2021 14:54:22 76.20,-163.99 81.30 05/03/2021 14:54:29 76.21,-163.95 81.28 1.08 7
9 05/06/2021 06:21:40 -75.46, 142.03 98.60 05/06/2021 06:20:55 -75.47, 142.06 98.57 1.00 45



Historial Predications of SNOs between AQUA and NPP
